FW7881 Weather Reports


time (UTC)temp
C
wind
direction
speed
KPH
gust
KPH
rain 1hr
cm
rain 24hr
cm
rain mn
cm
humidity
%
barometer
mb
20260906173101 24 141 3.2 17.7 0.00 0.00 0.00 79 1018.9
20260906171606 23 250 6.4 12.9 0.00 0.00 0.00 81 1019.2
20260906170057 23 137 1.6 11.3 0.00 0.00 0.00 82 1019.3
20260906164559 22 116 3.2 9.7 0.00 0.00 0.00 82 1019.5
20260906163054 22 138 0.0 9.7 0.00 0.00 0.00 83 1019.5
20260906161602 22 160 1.6 11.3 0.00 0.00 0.00 83 1019.5
20260906160057 22 172 1.6 11.3 0.00 0.00 0.00 84 1019.4
20260906154552 22 188 3.2 12.9 0.00 0.00 0.00 84 1019.5
20260906153100 21 214 6.4 12.9 0.00 0.00 0.00 85 1019.5
20260906151557 21 176 8.0 16.1 0.00 0.00 0.00 85 1019.8
20260906150104 21 203 4.8 12.9 0.00 0.00 0.00 84 1019.7
20260906144620 21 181 6.4 14.5 0.00 0.00 0.00 85 1019.7
20260906143101 21 188 8.0 16.1 0.00 0.00 0.00 85 1019.5
20260906141619 21 214 4.8 12.9 0.00 0.00 0.00 84 1019.5
20260906140059 22 198 1.6 6.4 0.00 0.00 0.00 84 1019.6
20260906134550 21 173 1.6 9.7 0.00 0.00 0.00 86 1019.3
20260906133100 21 209 1.6 4.8 0.00 0.00 0.00 87 1019.2
20260906131557 21 0 1.6 4.8 0.00 0.00 0.00 87 1019.1
20260906130057 21 0 0.0 4.8 0.00 0.00 0.00 88 1019.0
20260906124552 20 0 0.0 1.6 0.00 0.00 0.00 88 1018.9
20260906123058 20 160 0.0 1.6 0.00 0.00 0.00 91 1018.8
20260906121554 20 0 0.0 0.0 0.00 0.00 0.00 91 1018.8
20260906120101 20 0 0.0 0.0 0.00 0.00 0.00 91 1018.7
20260906114552 20 0 0.0 0.0 0.00 0.00 0.00 90 1018.6
20260906113058 20 0 0.0 0.0 0.00 0.00 0.00 90 1018.5
20260906111557 20 0 0.0 0.0 0.00 0.00 0.00 89 1018.4
20260906110055 20 0 0.0 0.0 0.00 0.00 0.00 89 1018.4
20260906104608 20 0 0.0 1.6 0.00 0.00 0.00 88 1018.2
20260906103049 20 0 0.0 1.6 0.00 0.00 0.00 89 1018.2
20260906101553 20 0 0.0 0.0 0.00 0.00 0.00 88 1018.1
20260906100054 21 0 0.0 1.6 0.00 0.00 0.00 87 1018.1
20260906094638 21 0 1.6 3.2 0.00 0.00 0.00 87 1017.6
20260906093106 21 0 0.0 1.6 0.00 0.00 0.00 87 1017.5
20260906091556 21 176 0.0 3.2 0.00 0.00 0.00 87 1017.2
20260906090056 21 0 0.0 1.6 0.00 0.00 0.00 86 1017.4
20260906084558 21 0 0.0 4.8 0.00 0.00 0.00 85 1017.4
20260906083056 21 308 0.0 4.8 0.00 0.00 0.00 85 1017.2
20260906081557 22 101 0.0 8.0 0.00 0.00 0.00 84 1017.0
20260906080056 22 175 0.0 4.8 0.00 0.00 0.00 84 1017.0
20260906074553 22 131 0.0 3.2 0.00 0.00 0.00 84 1017.1
20260906073056 22 0 0.0 1.6 0.00 0.00 0.00 84 1017.2
20260906071555 22 0 0.0 3.2 0.00 0.00 0.00 83 1017.5
20260906070054 22 128 0.0 1.6 0.00 0.00 0.00 83 1017.6
20260906064559 22 0 0.0 3.2 0.00 0.00 0.00 83 1017.9
20260906063057 22 239 0.0 4.8 0.00 0.00 0.00 83 1017.6
20260906061556 22 193 1.6 4.8 0.00 0.00 0.00 84 1017.7
20260906060058 22 0 0.0 3.2 0.00 0.00 0.00 84 1017.8
20260906054558 22 0 0.0 1.6 0.00 0.00 0.00 84 1017.7
20260906053100 22 0 0.0 1.6 0.00 0.00 0.00 83 1017.7
20260906051557 23 0 0.0 1.6 0.00 0.00 0.00 83 1017.7
20260906050115 23 201 0.0 3.2 0.00 0.00 0.00 83 1017.9
20260906044558 22 0 0.0 0.0 0.00 0.00 0.00 84 1018.0
20260906043057 22 0 0.0 0.0 0.00 0.00 0.00 84 1018.0
20260906041557 23 0 0.0 0.0 0.00 0.00 0.00 83 1018.2
20260906040138 22 203 0.0 0.0 0.00 0.00 0.00 83 1018.2
20260906034605 22 0 0.0 0.0 0.00 0.00 0.00 84 1018.1
20260906033059 22 0 0.0 0.0 0.00 0.00 0.00 83 1018.1
20260906031600 23 0 0.0 0.0 0.00 0.00 0.00 83 1018.0
20260906030059 23 0 0.0 1.6 0.00 0.00 0.00 82 1018.2
20260906024602 23 0 0.0 0.0 0.00 0.00 0.00 82 1018.3
20260906023055 23 0 0.0 0.0 0.00 0.00 0.00 82 1018.3
20260906021605 23 0 0.0 1.6 0.00 0.00 0.00 80 1017.8
20260906020100 24 0 0.0 3.2 0.00 0.00 0.00 80 1017.3
20260906014603 24 188 0.0 8.0 0.00 0.00 0.00 79 1017.0
20260906013101 25 173 3.2 9.7 0.00 0.00 0.00 78 1016.3
20260906011600 25 139 3.2 9.7 0.00 0.00 0.00 78 1016.0
20260906010107 25 171 3.2 11.3 0.00 0.00 0.00 78 1015.9
20260906004606 26 214 3.2 9.7 0.00 0.00 0.00 76 1015.8
20260906003103 26 174 3.2 11.3 0.00 0.00 0.00 75 1015.7
20260906001611 26 232 3.2 9.7 0.00 0.00 0.00 73 1015.5
20260906000057 27 191 4.8 11.3 0.00 0.00 0.00 71 1015.4
20260905234553 27 109 3.2 9.7 0.00 0.00 0.00 69 1015.3
20260905233111 28 129 3.2 12.9 0.00 0.00 0.00 68 1015.2
20260905231600 28 153 1.6 4.8 0.00 0.00 0.00 66 1015.1
20260905230103 28 127 0.0 9.7 0.00 0.00 0.00 65 1014.9
20260905224608 28 233 3.2 9.7 0.00 0.00 0.00 64 1014.7
20260905223057 28 104 3.2 8.0 0.00 0.00 0.00 63 1014.5
20260905221553 28 162 3.2 8.0 0.00 0.00 0.00 64 1014.7
20260905214556 28 174 3.2 6.4 0.00 0.00 0.00 67 1015.1
20260905213105 28 142 3.2 9.7 0.00 0.00 0.00 67 1015.2
20260905211555 28 32 1.6 12.9 0.00 0.00 0.00 68 1015.2
20260905210108 28 226 3.2 12.9 0.00 0.00 0.00 69 1015.0
20260905204556 27 102 1.6 11.3 0.00 0.00 0.00 69 1015.3
20260905203057 27 61 4.8 11.3 0.00 0.00 0.00 68 1015.7
20260905201605 27 26 3.2 8.0 0.00 0.00 0.00 71 1016.2
20260905200128 27 53 3.2 6.4 0.00 0.00 0.00 72 1016.5
20260905194601 27 68 1.6 6.4 0.00 0.00 0.00 74 1016.7
20260905193053 26 18 1.6 6.4 0.00 0.00 0.00 75 1016.9
20260905191555 26 6 0.0 3.2 0.00 0.00 0.00 75 1017.1
20260905184610 26 17 1.6 4.8 0.00 0.00 0.00 75 1017.0
20260905183056 26 357 1.6 6.4 0.00 0.00 0.00 74 1017.1
20260905181555 26 131 0.0 3.2 0.00 0.00 0.00 75 1017.2
20260905174601 25 114 3.2 8.0 0.00 0.00 0.00 78 1017.8